Location: Falniów
(50.3639°N, 19.9642°E)
Time: 13:37:35
(UTC+00:00)

Cosmos 2082 Rocket - Pass Details

Date: 18 April 2026
Orbit: 831 x 853 km, 71.0° (Epoch: 19 May)

Event Time Altitude Azimuth Distance (km) Brightness Sun altitude
Exits shadow 00:16:36 46° 142° (SE) 1,128 2.6 -25.3°
Maximum altitude 00:17:31 51° 111° (ESE) 1,062 2.7 -25.2°
Drops below altitude 10° 00:23:03 10° 37° (NE) 2,493 5.7 -24.8°
Sets 00:25:34 0° 33° (NNE) 3,433 6.8 -24.6°
